GW0309 Weather Reports


Display with metric or nautical units.
time (UTC)temp
F
wind
direction
speed
MPH
gust
MPH
rain 1hr
in
rain 24hr
in
rain mn
in
humidity
%
barometer
mb
20260904062357 0 163 5.0 6.0 0.00 0.00 0.00 1062.5
20260904061853 0 188 3.0 5.0 0.00 0.00 0.00 1062.4
20260904061349 0 165 2.0 7.0 0.00 0.00 0.00 1062.2
20260904060845 0 164 1.0 3.0 0.00 0.00 0.00 1062.2
20260904060341 0 171 2.0 3.0 0.00 0.00 0.00 1062.3
20260904055835 0 169 1.0 2.0 0.00 0.00 0.00 1062.1
20260904055331 0 176 2.0 2.0 0.00 0.00 0.00 1062.4
20260904054827 0 144 1.0 3.0 0.00 0.00 0.00 1062.3
20260904054322 0 184 1.0 2.0 0.00 0.00 0.00 1062.3
20260904053812 0 158 1.0 5.0 0.00 0.00 0.00 1062.3
20260904053311 0 158 1.0 2.0 0.00 0.00 0.00 1062.2
20260904052807 0 177 1.0 2.0 0.00 0.00 0.00 1062.2
20260904052306 0 166 1.0 2.0 0.00 0.00 0.00 1062.2
20260904051754 0 156 1.0 6.0 0.00 0.00 0.00 1062.2
20260904051249 0 173 3.0 3.0 0.00 0.00 0.00 1062.3
20260904050744 0 191 2.0 2.0 0.00 0.00 0.00 1062.0
20260904050240 0 145 1.0 6.0 0.00 0.00 0.00 1062.1
20260904045735 0 162 2.0 5.0 0.00 0.00 0.00 1062.2
20260904045229 0 166 3.0 8.0 0.00 0.00 0.00 1062.1
20260904044724 0 169 1.0 3.0 0.00 0.00 0.00 1062.2
20260904044221 0 161 3.0 3.0 0.00 0.00 0.00 1062.1
20260904043716 0 166 3.0 5.0 0.00 0.00 0.00 1062.3
20260904043212 0 176 3.0 5.0 0.00 0.00 0.00 1062.1
20260904042708 0 149 2.0 3.0 0.00 0.00 0.00 1062.2
20260904042205 0 162 1.0 2.0 0.00 0.00 0.00 1062.3
20260904041704 0 177 2.0 2.0 0.00 0.00 0.00 1062.3
20260904041200 0 159 1.0 2.0 0.00 0.00 0.00 1062.3
20260904040656 0 173 3.0 3.0 0.00 0.00 0.00 1062.4
20260904040152 0 142 1.0 1.0 0.00 0.00 0.00 1062.3
20260904035647 0 170 1.0 2.0 0.00 0.00 0.00 1062.3
20260904035142 0 170 1.0 2.0 0.00 0.00 0.00 1062.4
20260904034641 0 177 2.0 5.0 0.00 0.00 0.00 1062.1
20260904034137 0 163 1.0 3.0 0.00 0.00 0.00 1062.3
20260904033633 0 184 3.0 5.0 0.00 0.00 0.00 1062.3
20260904033130 0 165 2.0 2.0 0.00 0.00 0.00 1062.2
20260904032625 0 140 2.0 2.0 0.00 0.00 0.00 1062.2
20260904032124 0 151 1.0 2.0 0.00 0.00 0.00 1062.2
20260904031623 0 159 1.0 2.0 0.00 0.00 0.00 1062.3
20260904031120 0 190 3.0 3.0 0.00 0.00 0.00 1062.3
20260904030615 0 168 2.0 5.0 0.00 0.00 0.00 1062.3
20260904030111 0 171 1.0 2.0 0.00 0.00 0.00 1062.0
20260904025606 0 177 2.0 5.0 0.00 0.00 0.00 1062.3
20260904025101 0 184 1.0 3.0 0.00 0.00 0.00 1062.1
20260904024557 0 150 1.0 3.0 0.00 0.00 0.00 1062.0
20260904024052 0 183 3.0 5.0 0.00 0.00 0.00 1062.0
20260904023548 0 152 2.0 3.0 0.00 0.00 0.00 1061.9
20260904023044 0 172 1.0 2.0 0.00 0.00 0.00 1061.9
20260904022538 0 181 2.0 3.0 0.00 0.00 0.00 1061.9
20260904022036 0 171 4.0 6.0 0.00 0.00 0.00 1061.9
20260904021531 0 166 3.0 6.0 0.00 0.00 0.00 1061.6
20260904021026 0 177 2.0 6.0 0.00 0.00 0.00 1061.6
20260904020521 0 166 2.0 6.0 0.00 0.00 0.00 1061.8
20260904020021 0 194 4.0 6.0 0.00 0.00 0.00 1061.5
20260904015515 0 176 3.0 6.0 0.00 0.00 0.00 1061.6
20260904015014 0 190 3.0 7.0 0.00 0.00 0.00 1061.4
20260904014508 0 188 3.0 6.0 0.00 0.00 0.00 1061.3
20260904014004 0 184 2.0 5.0 0.00 0.00 0.00 1061.5
20260904013500 0 185 3.0 5.0 0.00 0.00 0.00 1061.4
20260904012957 0 189 3.0 6.0 0.00 0.00 0.00 1061.5
20260904012456 0 142 3.0 5.0 0.00 0.00 0.00 1061.1
20260904011950 0 174 2.0 3.0 0.00 0.00 0.00 1061.3
20260904011445 0 145 2.0 3.0 0.00 0.00 0.00 1061.2
20260904010940 0 168 2.0 3.0 0.00 0.00 0.00 1061.1
20260904010431 0 162 3.0 5.0 0.00 0.00 0.00 1061.2
20260904005925 0 192 2.0 5.0 0.00 0.00 0.00 1060.8
20260904005422 0 169 3.0 7.0 0.00 0.00 0.00 1061.4
20260904004921 0 173 1.0 5.0 0.00 0.00 0.00 1061.2
20260904004418 0 169 3.0 3.0 0.00 0.00 0.00 1061.0
20260904003913 0 146 1.0 3.0 0.00 0.00 0.00 1060.9
20260904003409 0 174 4.0 8.0 0.00 0.00 0.00 1061.0
20260904002908 0 152 2.0 5.0 0.00 0.00 0.00 1060.9
20260904002406 0 176 2.0 6.0 0.00 0.00 0.00 1060.7
20260904001904 0 139 2.0 5.0 0.00 0.00 0.00 1060.9
20260904001401 0 140 1.0 5.0 0.00 0.00 0.00 1060.7
20260904000900 0 160 3.0 5.0 0.00 0.00 0.00 1060.8
20260904000355 0 136 1.0 6.0 0.00 0.00 0.00 1061.1
20260903235854 0 152 1.0 5.0 0.00 0.00 0.00 1060.9
20260903235350 0 189 3.0 8.0 0.00 0.00 0.00 1060.7
20260903234849 0 176 1.0 5.0 0.00 0.00 0.00 1060.7
20260903234346 0 187 4.0 6.0 0.00 0.00 0.00 1060.7
20260903233842 0 194 3.0 6.0 0.00 0.00 0.00 1060.9
20260903233338 0 160 4.0 6.0 0.00 0.00 0.00 1060.7
20260903232837 0 178 6.0 9.0 0.00 0.00 0.00 1061.0
20260903232333 0 160 2.0 3.0 0.00 0.00 0.00 1060.7
20260903231832 0 198 3.0 8.0 0.00 0.00 0.00 1060.6
20260903231327 0 170 4.0 7.0 0.00 0.00 0.00 1060.6
20260903230822 0 195 2.0 8.0 0.00 0.00 0.00 1060.6
20260903230318 0 184 5.0 8.0 0.00 0.00 0.00 1060.7
20260903225814 0 161 4.0 8.0 0.00 0.00 0.00 1060.7
20260903225310 0 176 4.0 8.0 0.00 0.00 0.00 1060.7
20260903224806 0 201 7.0 9.0 0.00 0.00 0.00 1060.3
20260903224301 0 140 0.0 3.0 0.00 0.00 0.00 1060.4
20260903223757 0 168 5.0 14.0 0.00 0.00 0.00 1060.3
20260903223255 0 151 3.0 7.0 0.00 0.00 0.00 1060.3
20260903222745 0 165 5.0 6.0 0.00 0.00 0.00 1060.4
20260903222244 0 168 1.0 2.0 0.00 0.00 0.00 1060.4
20260903221739 0 179 5.0 8.0 0.00 0.00 0.00 1060.6
20260903221237 0 168 3.0 6.0 0.00 0.00 0.00 1060.7
20260903220736 0 148 5.0 14.0 0.00 0.00 0.00 1060.6
20260903220231 0 182 4.0 9.0 0.00 0.00 0.00 1060.7
20260903215729 0 176 2.0 5.0 0.00 0.00 0.00 1060.6
20260903215225 0 176 3.0 8.0 0.00 0.00 0.00 1060.6
20260903214723 0 192 1.0 5.0 0.00 0.00 0.00 1060.6
20260903214220 0 152 4.0 6.0 0.00 0.00 0.00 1060.6
20260903213714 0 178 2.0 7.0 0.00 0.00 0.00 1060.7
20260903213210 0 178 5.0 6.0 0.00 0.00 0.00 1060.9
20260903212706 0 152 2.0 7.0 0.00 0.00 0.00 1060.6
20260903212202 0 175 3.0 8.0 0.00 0.00 0.00 1060.7
20260903211701 0 180 5.0 7.0 0.00 0.00 0.00 1060.9
20260903211158 0 186 5.0 9.0 0.00 0.00 0.00 1060.6
20260903210653 0 144 2.0 6.0 0.00 0.00 0.00 1060.8
20260903210149 0 159 6.0 8.0 0.00 0.00 0.00 1060.9
20260903205649 0 193 5.0 10.0 0.00 0.00 0.00 1060.9
20260903205148 0 116 3.0 8.0 0.00 0.00 0.00 1060.7
20260903204644 0 195 5.0 7.0 0.00 0.00 0.00 1060.9
20260903204139 0 192 4.0 7.0 0.00 0.00 0.00 1061.2
20260903203635 0 186 3.0 9.0 0.00 0.00 0.00 1061.1
20260903203130 0 124 3.0 5.0 0.00 0.00 0.00 1061.0
20260903202625 0 150 0.0 3.0 0.00 0.00 0.00 1061.0
20260903202120 0 219 4.0 9.0 0.00 0.00 0.00 1061.3
20260903201615 0 157 2.0 8.0 0.00 0.00 0.00 1061.2
20260903201114 0 136 3.0 8.0 0.00 0.00 0.00 1061.3
20260903200609 0 182 1.0 6.0 0.00 0.00 0.00 1061.4
20260903200104 0 136 4.0 7.0 0.00 0.00 0.00 1061.3
20260903195600 0 160 4.0 7.0 0.00 0.00 0.00 1061.3
20260903195056 0 175 5.0 7.0 0.00 0.00 0.00 1061.2
20260903194551 0 205 3.0 7.0 0.00 0.00 0.00 1061.5
20260903194045 0 160 2.0 3.0 0.00 0.00 0.00 1061.5
20260903193542 0 202 3.0 7.0 0.00 0.00 0.00 1061.6
20260903193037 0 110 3.0 5.0 0.00 0.00 0.00 1061.6
20260903192534 0 152 3.0 5.0 0.00 0.00 0.00 1061.6
20260903192034 0 118 1.0 8.0 0.00 0.00 0.00 1061.9
20260903191530 0 175 7.0 11.0 0.00 0.00 0.00 1062.0
20260903191024 0 182 3.0 6.0 0.00 0.00 0.00 1062.0
20260903190518 0 156 5.0 11.0 0.00 0.00 0.00 1061.9
20260903190018 0 215 5.0 7.0 0.00 0.00 0.00 1062.0
20260903185514 0 184 4.0 8.0 0.00 0.00 0.00 1062.1
20260903185009 0 181 4.0 10.0 0.00 0.00 0.00 1062.3
20260903184505 0 224 3.0 8.0 0.00 0.00 0.00 1062.2
20260903183959 0 159 4.0 6.0 0.00 0.00 0.00 1062.2
20260903183454 0 173 3.0 6.0 0.00 0.00 0.00 1062.3
20260903182953 0 189 3.0 6.0 0.00 0.00 0.00 1062.4
20260903182452 0 166 3.0 5.0 0.00 0.00 0.00 1062.6
20260903181948 0 183 5.0 8.0 0.00 0.00 0.00 1062.7
20260903181441 0 196 6.0 9.0 0.00 0.00 0.00 1062.5
20260903180936 0 173 5.0 6.0 0.00 0.00 0.00 1062.5
20260903180431 0 177 1.0 6.0 0.00 0.00 0.00 1062.9
20260903175930 0 192 5.0 13.0 0.00 0.00 0.00 1062.8
20260903175425 0 138 1.0 2.0 0.00 0.00 0.00 1062.7
20260903174919 0 157 3.0 5.0 0.00 0.00 0.00 1062.8
20260903174414 0 182 0.0 5.0 0.00 0.00 0.00 1063.3
20260903173909 0 126 1.0 3.0 0.00 0.00 0.00 1063.3
20260903173403 0 256 2.0 3.0 0.00 0.00 0.00 1063.3
20260903172900 0 204 2.0 13.0 0.00 0.00 0.00 1063.1
20260903172359 0 154 3.0 9.0 0.00 0.00 0.00 1063.0
20260903171855 0 206 3.0 3.0 0.00 0.00 0.00 1063.5
20260903171350 0 177 1.0 7.0 0.00 0.00 0.00 1063.6
20260903170849 0 188 6.0 10.0 0.00 0.00 0.00 1063.8
20260903170344 0 141 1.0 8.0 0.00 0.00 0.00 1063.4
20260903165842 0 154 4.0 8.0 0.00 0.00 0.00 1063.7
20260903165337 0 138 2.0 13.0 0.00 0.00 0.00 1063.7
20260903164832 0 150 1.0 9.0 0.00 0.00 0.00 1063.9
20260903164327 0 189 5.0 7.0 0.00 0.00 0.00 1063.6
20260903163826 0 159 1.0 3.0 0.00 0.00 0.00 1063.7
20260903163323 0 143 3.0 7.0 0.00 0.00 0.00 1063.7
20260903162819 0 222 2.0 3.0 0.00 0.00 0.00 1063.6
20260903162315 0 160 6.0 10.0 0.00 0.00 0.00 1063.8
20260903161811 0 165 2.0 3.0 0.00 0.00 0.00 1063.8
20260903161306 0 194 1.0 3.0 0.00 0.00 0.00 1063.8
20260903160802 0 271 3.0 6.0 0.00 0.00 0.00 1063.8
20260903160301 0 160 3.0 6.0 0.00 0.00 0.00 1064.0
20260903155759 0 186 3.0 6.0 0.00 0.00 0.00 1063.8
20260903155254 0 92 4.0 11.0 0.00 0.00 0.00 1063.8
20260903154750 0 180 2.0 3.0 0.00 0.00 0.00 1064.1
20260903154246 0 180 2.0 7.0 0.00 0.00 0.00 1063.9
20260903153741 0 208 3.0 3.0 0.00 0.00 0.00 1063.9
20260903153237 0 200 2.0 5.0 0.00 0.00 0.00 1064.1
20260903152733 0 176 4.0 7.0 0.00 0.00 0.00 1063.9
20260903152229 0 149 1.0 3.0 0.00 0.00 0.00 1064.0
20260903151728 0 142 1.0 5.0 0.00 0.00 0.00 1063.8
20260903151224 0 248 2.0 3.0 0.00 0.00 0.00 1064.0
20260903150719 0 191 3.0 5.0 0.00 0.00 0.00 1063.6
20260903150213 0 130 2.0 6.0 0.00 0.00 0.00 1064.0
20260903145708 0 145 2.0 5.0 0.00 0.00 0.00 1064.1
20260903145203 0 201 2.0 6.0 0.00 0.00 0.00 1063.9
20260903144702 0 162 1.0 3.0 0.00 0.00 0.00 1064.1
20260903144158 0 172 3.0 3.0 0.00 0.00 0.00 1063.9
20260903143654 0 181 1.0 3.0 0.00 0.00 0.00 1064.1
20260903143150 0 158 2.0 2.0 0.00 0.00 0.00 1064.2
20260903142645 0 157 1.0 8.0 0.00 0.00 0.00 1064.1
20260903142141 0 112 1.0 2.0 0.00 0.00 0.00 1064.3
20260903141636 0 180 1.0 6.0 0.00 0.00 0.00 1064.3
20260903141131 0 151 1.0 6.0 0.00 0.00 0.00 1064.2
20260903140627 0 167 1.0 2.0 0.00 0.00 0.00 1064.1
20260903140123 0 146 2.0 5.0 0.00 0.00 0.00 1064.2
20260903135618 0 168 0.0 6.0 0.00 0.00 0.00 1064.2
20260903135112 0 145 1.0 2.0 0.00 0.00 0.00 1064.2
20260903134611 0 157 0.0 1.0 0.00 0.00 0.00 1064.0
20260903134102 0 143 1.0 2.0 0.00 0.00 0.00 1064.2
20260903133559 0 139 0.0 2.0 0.00 0.00 0.00 1064.3
20260903133055 0 155 1.0 2.0 0.00 0.00 0.00 1064.3
20260903132550 0 183 2.0 3.0 0.00 0.00 0.00 1064.2
20260903132044 0 160 1.0 3.0 0.00 0.00 0.00 1064.3
20260903131544 0 142 0.0 2.0 0.00 0.00 0.00 1064.1
20260903131038 0 141 1.0 2.0 0.00 0.00 0.00 1064.2
20260903130532 0 143 0.0 1.0 0.00 0.00 0.00 1064.5
20260903130027 0 194 1.0 2.0 0.00 0.00 0.00 1064.3
20260903125525 0 144 1.0 2.0 0.00 0.00 0.00 1064.0
20260903125021 0 150 1.0 2.0 0.00 0.00 0.00 1064.3
20260903124515 0 169 2.0 3.0 0.00 0.00 0.00 1064.1
20260903124015 0 164 1.0 2.0 0.00 0.00 0.00 1064.0
20260903123509 0 162 1.0 2.0 0.00 0.00 0.00 1064.1
20260903123008 0 188 3.0 3.0 0.00 0.00 0.00 1064.2
20260903122507 0 188 2.0 2.0 0.00 0.00 0.00 1064.2
20260903122002 0 167 1.0 2.0 0.00 0.00 0.00 1064.2
20260903121456 0 176 1.0 2.0 0.00 0.00 0.00 1063.9
20260903120953 0 167 1.0 3.0 0.00 0.00 0.00 1064.0
20260903120451 0 179 1.0 2.0 0.00 0.00 0.00 1064.1
20260903115950 0 167 1.0 3.0 0.00 0.00 0.00 1064.0
20260903115450 0 159 0.0 1.0 0.00 0.00 0.00 1063.9
20260903114944 0 177 1.0 1.0 0.00 0.00 0.00 1063.8
20260903114440 0 152 2.0 2.0 0.00 0.00 0.00 1063.8
20260903113935 0 147 2.0 2.0 0.00 0.00 0.00 1063.8
20260903113432 0 146 2.0 2.0 0.00 0.00 0.00 1064.0
20260903112931 0 158 2.0 6.0 0.00 0.00 0.00 1064.0
20260903112427 0 163 1.0 2.0 0.00 0.00 0.00 1063.9
20260903111927 0 144 1.0 1.0 0.00 0.00 0.00 1063.9
20260903111421 0 169 2.0 2.0 0.00 0.00 0.00 1063.9
20260903110918 0 150 0.0 1.0 0.00 0.00 0.00 1063.9
20260903110413 0 153 1.0 1.0 0.00 0.00 0.00 1063.7
20260903105908 0 150 1.0 1.0 0.00 0.00 0.00 1063.9
20260903105403 0 149 0.0 2.0 0.00 0.00 0.00 1063.7
20260903104902 0 168 1.0 1.0 0.00 0.00 0.00 1063.7
20260903104357 0 151 3.0 3.0 0.00 0.00 0.00 1063.6
20260903103854 0 168 1.0 1.0 0.00 0.00 0.00 1063.7
20260903103350 0 149 0.0 1.0 0.00 0.00 0.00 1063.6
20260903102844 0 151 1.0 1.0 0.00 0.00 0.00 1063.6
20260903102338 0 152 0.0 1.0 0.00 0.00 0.00 1063.6
20260903101833 0 167 1.0 1.0 0.00 0.00 0.00 1063.5
20260903101328 0 160 1.0 3.0 0.00 0.00 0.00 1063.6
20260903100823 0 166 2.0 2.0 0.00 0.00 0.00 1063.7
20260903100317 0 163 1.0 3.0 0.00 0.00 0.00 1063.7
20260903095815 0 169 1.0 5.0 0.00 0.00 0.00 1063.5
20260903095308 0 166 2.0 3.0 0.00 0.00 0.00 1063.7
20260903094805 0 175 1.0 3.0 0.00 0.00 0.00 1063.5
20260903094259 0 154 1.0 5.0 0.00 0.00 0.00 1063.5
20260903093754 0 150 1.0 2.0 0.00 0.00 0.00 1063.4
20260903093249 0 170 3.0 5.0 0.00 0.00 0.00 1063.5
20260903092744 0 167 1.0 3.0 0.00 0.00 0.00 1063.4
20260903092239 0 171 2.0 3.0 0.00 0.00 0.00 1063.5
20260903091737 0 149 1.0 1.0 0.00 0.00 0.00 1063.4
20260903091226 0 160 2.0 3.0 0.00 0.00 0.00 1063.4
20260903090721 0 170 1.0 3.0 0.00 0.00 0.00 1063.5
20260903090220 0 164 2.0 5.0 0.00 0.00 0.00 1063.0
20260903085714 0 179 2.0 3.0 0.00 0.00 0.00 1063.5
20260903085209 0 172 2.0 5.0 0.00 0.00 0.00 1063.5
20260903084707 0 160 1.0 2.0 0.00 0.00 0.00 1063.5
20260903084202 0 165 1.0 2.0 0.00 0.00 0.00 1063.0
20260903083657 0 173 1.0 3.0 0.00 0.00 0.00 1063.4
20260903083151 0 151 4.0 5.0 0.00 0.00 0.00 1063.4
20260903082646 0 135 1.0 3.0 0.00 0.00 0.00 1063.1
20260903082142 0 188 1.0 3.0 0.00 0.00 0.00 1063.4
20260903081636 0 189 1.0 3.0 0.00 0.00 0.00 1063.1
20260903081132 0 183 3.0 3.0 0.00 0.00 0.00 1063.3
20260903080628 0 178 2.0 6.0 0.00 0.00 0.00 1063.0
20260903080125 0 170 1.0 2.0 0.00 0.00 0.00 1063.3
20260903075618 0 143 3.0 3.0 0.00 0.00 0.00 1063.1
20260903075114 0 189 3.0 3.0 0.00 0.00 0.00 1063.1
20260903074613 0 184 3.0 3.0 0.00 0.00 0.00 1063.5
20260903074108 0 166 1.0 3.0 0.00 0.00 0.00 1063.1
20260903073604 0 159 1.0 2.0 0.00 0.00 0.00 1063.3
20260903073059 0 182 3.0 3.0 0.00 0.00 0.00 1063.3
20260903072555 0 170 3.0 3.0 0.00 0.00 0.00 1063.3
20260903072051 0 165 2.0 2.0 0.00 0.00 0.00 1063.3
20260903071548 0 121 4.0 6.0 0.00 0.00 0.00 1063.1
20260903071047 0 178 2.0 5.0 0.00 0.00 0.00 1063.1
20260903070542 0 170 3.0 3.0 0.00 0.00 0.00 1063.3
20260903070038 0 168 3.0 3.0 0.00 0.00 0.00 1063.5
20260903065537 0 157 2.0 5.0 0.00 0.00 0.00 1063.5
20260903065036 0 157 2.0 6.0 0.00 0.00 0.00 1063.5
20260903064531 0 162 2.0 3.0 0.00 0.00 0.00 1063.1
20260903064027 0 171 2.0 3.0 0.00 0.00 0.00 1063.4
20260903063522 0 184 3.0 6.0 0.00 0.00 0.00 1063.4
20260903063017 0 168 3.0 3.0 0.00 0.00 0.00 1063.4